This demonstration page uses our WeatherBlox Daily Observations layout. Learn more.

Left ArrowRight Arrow

39.51506, -84.39828

Hourly Observations for April 11, 2015

Temp ( °F °C ) Dew Point ( °F °C ) Humidity (%) Winds ( mph kmh ) Pressure ( in mb ) Visibility ( mi km ) Precip ( " mm )
12:15 am 00:15 Mostly Cloudy 55 12.5 29 -1.9 37 37 NW 15 24 30.12 1020 10 16.0934 N/A
12:35 am 00:35 Mostly Cloudy 55 12.5 30 -1.3 39 39 NNW 10 17 30.12 1020 10 16.0934 N/A
12:55 am 00:55 Partly Cloudy 51 10.8 28 -2.2 41 41 NNW 15 24 30.15 1021 10 16.0934 N/A
1:15 am 01:15 Clear 49 9.6 28 -2.1 44 44 NW 9 15 30.15 1021 10 16.0934 N/A
1:35 am 01:35 Clear 49 9.6 31 -0.8 49 49 NNW 7 11 30.18 1022 10 16.0934 N/A
1:55 am 01:55 Clear 49 9.6 33 0.3 53 53 NNW 7 11 30.18 1022 10 16.0934 N/A
2:15 am 02:15 Clear 49 9.6 35 1.5 57 57 N 7 11 30.18 1022 10 16.0934 N/A
2:35 am 02:35 Clear 49 9.6 36 2.2 60 60 N 8 13 30.18 1022 10 16.0934 N/A
2:55 am 02:55 Clear 47 8.2 35 1.5 63 63 NNW 5 7 30.18 1022 10 16.0934 N/A
3:15 am 03:15 Clear 46 7.7 35 1.8 67 67 NW 5 7 30.18 1022 10 16.0934 N/A
3:35 am 03:35 Clear 44 6.8 34 1.3 68 68 NNW 6 9 30.18 1022 10 16.0934 N/A
3:55 am 03:55 Clear 44 6.8 34 1.3 68 68 NNW 6 9 30.18 1022 10 16.0934 N/A
4:15 am 04:15 Clear 44 6.5 35 1.4 70 70 NNW 8 13 30.21 1023 10 16.0934 N/A
4:35 am 04:35 Clear 43 6 34 1.3 72 72 NNW 3 6 30.21 1023 10 16.0934 N/A
4:55 am 04:55 Clear 42 5.6 34 1.3 74 74 N 3 6 30.21 1023 10 16.0934 N/A
5:15 am 05:15 Clear 42 5.5 35 1.5 76 76 N 5 7 30.21 1023 10 16.0934 N/A
5:35 am 05:35 Clear 42 5.5 35 1.5 76 76 N N/A 30.21 1023 10 16.0934 N/A
5:55 am 05:55 Clear 41 5.1 35 1.6 78 78 N N/A 30.27 1025 10 16.0934 N/A
6:15 am 06:15 Clear 40 4.5 34 1.3 80 80 N N/A 30.27 1025 10 16.0934 N/A
6:35 am 06:35 Clear 39 4 35 1.5 84 84 N N/A 30.27 1025 10 16.0934 N/A
6:55 am 06:55 Clear 39 4 35 1.8 86 86 N N/A 30.27 1025 10 16.0934 N/A
7:15 am 07:15 Sunny 39 4 35 1.9 86 86 N N/A 30.3 1026 7 11.26538 N/A
7:35 am 07:35 Sunny 39 4 36 2 87 87 N N/A 30.3 1026 7 11.26538 N/A
7:55 am 07:55 Sunny 39 4 36 2.1 88 88 N N/A 30.3 1026 10 16.0934 N/A
8:15 am 08:15 Sunny 40 4.7 37 2.7 87 87 N N/A 30.33 1027 10 16.0934 N/A
8:35 am 08:35 Sunny 43 5.9 37 3 82 82 N N/A 30.33 1027 10 16.0934 N/A
8:55 am 08:55 Sunny 46 7.8 38 3.4 74 74 N 3 6 30.3 1026 10 16.0934 N/A
9:15 am 09:15 Sunny 49 9.6 39 4.1 69 69 N N/A 30.3 1026 10 16.0934 N/A
9:35 am 09:35 Sunny 49 9.6 38 3.2 65 65 NE 3 6 30.3 1026 10 16.0934 N/A
9:55 am 09:55 Sunny 49 9.6 36 2.4 61 61 N N/A 30.3 1026 10 16.0934 N/A
10:15 am 10:15 Sunny 49 9.6 35 1.8 59 59 N N/A 30.33 1027 10 16.0934 N/A
10:35 am 10:35 Sunny 51 10.5 35 1.7 55 55 NNE 5 7 30.33 1027 10 16.0934 N/A
10:55 am 10:55 Sunny 53 11.4 36 2.2 53 53 NE 7 11 30.33 1027 10 16.0934 N/A
11:15 am 11:15 Sunny 55 12.5 35 1.5 47 47 ESE 3 6 30.33 1027 10 16.0934 N/A
11:35 am 11:35 Sunny 55 12.5 35 1.8 48 48 N 3 6 30.33 1027 10 16.0934 N/A
11:55 am 11:55 Sunny 55 12.5 33 0.6 44 44 ENE 5 7 30.33 1027 10 16.0934 N/A
12:15 pm 12:15 Sunny 55 12.5 31 -0.6 41 41 ENE 5 7 30.33 1027 10 16.0934 N/A
12:35 pm 12:35 Sunny 55 12.7 30 -0.9 39 39 NE 3 6 30.3 1026 10 16.0934 N/A
12:55 pm 12:55 Sunny 56 13.5 31 -0.6 38 38 E 3 6 30.3 1026 10 16.0934 N/A
1:15 pm 13:15 Sunny 57 13.8 31 -0.8 37 37 N N/A 30.3 1026 10 16.0934 N/A
1:35 pm 13:35 Sunny 57 13.8 28 -2.4 33 33 SE 3 6 30.3 1026 10 16.0934 N/A
1:55 pm 13:55 Sunny 57 14 30 -1.1 36 36 N N/A 30.3 1026 10 16.0934 N/A
2:15 pm 14:15 Sunny 59 15.2 28 -2.3 30 30 N N/A 30.3 1026 10 16.0934 N/A
2:35 pm 14:35 Sunny 60 15.4 32 -0.2 35 35 E 5 7 30.27 1025 10 16.0934 N/A
2:55 pm 14:55 Sunny 60 15.3 30 -1.2 32 32 NE 6 9 30.27 1025 10 16.0934 N/A
3:15 pm 15:15 Hazy 60 15.3 30 -1 33 33 ENE 5 7 30.27 1025 5 8.0467 N/A
3:35 pm 15:35 Sunny 61 15.9 30 -1 32 32 NE 6 9 30.27 1025 10 16.0934 N/A
3:55 pm 15:55 Sunny 61 15.9 28 -2.4 29 29 N N/A 30.24 1024 10 16.0934 N/A
4:15 pm 16:15 Sunny 61 16 29 -1.8 30 30 NE 6 9 30.24 1024 10 16.0934 N/A
4:35 pm 16:35 Sunny 61 16 27 -2.6 28 28 NNE 7 11 30.24 1024 10 16.0934 N/A
4:55 pm 16:55 Sunny 61 16 26 -3.5 26 26 N N/A 30.24 1024 10 16.0934 N/A
5:15 pm 17:15 Sunny 62 16.4 27 -2.6 27 27 E 5 7 30.24 1024 10 16.0934 N/A
5:35 pm 17:35 Sunny 61 16 25 -3.7 26 26 E 3 6 30.24 1024 10 16.0934 N/A
5:55 pm 17:55 Sunny 61 16 26 -3.4 26 26 N N/A 30.24 1024 10 16.0934 N/A
6:15 pm 18:15 Sunny 61 16 24 -4.2 25 25 N N/A 30.24 1024 10 16.0934 N/A
6:35 pm 18:35 Sunny 61 16 27 -3 27 27 N N/A 30.24 1024 10 16.0934 N/A
6:55 pm 18:55 Sunny 61 16 26 -3.1 27 27 N N/A 30.24 1024 10 16.0934 N/A
7:15 pm 19:15 Sunny 60 15.4 28 -2.3 30 30 ENE 3 6 30.24 1024 10 16.0934 N/A
7:35 pm 19:35 Sunny 60 15.3 32 0.2 36 36 ENE 3 6 30.24 1024 10 16.0934 N/A
7:55 pm 19:55 Sunny 60 15.3 31 -0.6 34 34 N N/A 30.24 1024 10 16.0934 N/A
8:15 pm 20:15 Clear 57 13.8 33 0.3 40 40 N N/A 30.24 1024 10 16.0934 N/A
8:35 pm 20:35 Clear 55 12.5 40 4.7 59 59 N N/A 30.24 1024 10 16.0934 N/A
8:55 pm 20:55 Clear 55 12.5 42 5.4 62 62 N N/A 30.24 1024 10 16.0934 N/A
9:15 pm 21:15 Clear 51 10.4 40 4.2 66 66 N N/A 30.24 1024 10 16.0934 N/A
9:35 pm 21:35 Clear 49 9.6 40 4.7 72 72 N N/A 30.27 1025 7 11.26538 N/A
9:55 pm 21:55 Clear 49 9.6 40 4.4 70 70 N N/A 30.27 1025 10 16.0934 N/A
10:15 pm 22:15 Hazy 49 9.6 40 4.2 69 69 NNE 5 7 30.24 1024 5 8.0467 N/A
10:35 pm 22:35 Clear 49 9.6 40 4.3 70 70 N N/A 30.24 1024 10 16.0934 N/A
10:55 pm 22:55 Clear 47 8.2 39 3.9 75 75 N 3 6 30.24 1024 10 16.0934 N/A
11:15 pm 23:15 Clear 46 7.9 38 3.6 75 75 N 3 6 30.27 1025 10 16.0934 N/A
11:35 pm 23:35 Clear 43 6.3 37 2.8 79 79 N N/A 30.24 1024 10 16.0934 N/A
11:55 pm 23:55 Clear 44 6.5 38 3.1 79 79 N 3 6 30.24 1024 7 11.26538 N/A

Powered by AerisWeather